| time (UTC) | temp F | wind direction | speed knots | gust knots | rain 1hr in | rain 24hr in | rain mn in | humidity % | barometer mb |
| 20260505063537 | 49 | 152 | 1.7 | 2.6 | 0.00 | 0.00 | 0.00 | 90 | 1011.4 |
| 20260505062517 | 49 | 181 | 0.0 | 1.7 | 0.00 | 0.00 | 0.00 | 89 | 1011.4 |
| 20260505061517 | 49 | 170 | 0.9 | 2.6 | 0.00 | 0.00 | 0.00 | 88 | 1011.4 |
| 20260505060538 | 49 | 153 | 2.6 | 3.5 | 0.00 | 0.00 | 0.00 | 88 | 1011.4 |
| 20260505055517 | 50 | 185 | 0.9 | 1.7 | 0.00 | 0.00 | 0.00 | 87 | 1011.5 |
| 20260505054518 | 50 | 154 | 0.9 | 1.7 | 0.00 | 0.00 | 0.00 | 86 | 1011.5 |
| 20260505053519 | 50 | 188 | 0.9 | 1.7 | 0.00 | 0.00 | 0.00 | 86 | 1011.5 |
| 20260505052518 | 50 | 174 | 1.7 | 1.7 | 0.00 | 0.00 | 0.00 | 85 | 1011.4 |
| 20260505051518 | 50 | 179 | 1.7 | 3.5 | 0.00 | 0.00 | 0.00 | 85 | 1011.4 |
| 20260505050519 | 50 | 147 | 1.7 | 3.5 | 0.00 | 0.00 | 0.00 | 84 | 1011.5 |
| 20260505041559 | 51 | 182 | 1.7 | 2.6 | 0.00 | 0.00 | 0.00 | 80 | 1011.8 |
| 20260505040539 | 51 | 168 | 1.7 | 3.5 | 0.00 | 0.00 | 0.00 | 80 | 1011.6 |
| 20260505035517 | 51 | 152 | 2.6 | 4.3 | 0.00 | 0.00 | 0.00 | 79 | 1011.7 |
| 20260505034517 | 52 | 175 | 1.7 | 2.6 | 0.00 | 0.00 | 0.00 | 79 | 1011.6 |
| 20260505033520 | 52 | 175 | 1.7 | 2.6 | 0.00 | 0.00 | 0.00 | 78 | 1011.6 |
| 20260505032521 | 52 | 152 | 1.7 | 2.6 | 0.00 | 0.00 | 0.00 | 76 | 1011.6 |
| 20260505031518 | 52 | 159 | 2.6 | 4.3 | 0.00 | 0.00 | 0.00 | 75 | 1011.6 |
| 20260505030517 | 53 | 179 | 1.7 | 3.5 | 0.00 | 0.00 | 0.00 | 75 | 1011.8 |
| 20260505025618 | 53 | 168 | 1.7 | 3.5 | 0.00 | 0.00 | 0.00 | 74 | 1011.8 |
| 20260505024518 | 53 | 162 | 2.6 | 4.3 | 0.00 | 0.00 | 0.00 | 73 | 1011.7 |
| 20260505023518 | 53 | 190 | 4.3 | 7.8 | 0.00 | 0.00 | 0.00 | 74 | 1011.7 |
| 20260505022538 | 53 | 195 | 3.5 | 6.1 | 0.00 | 0.00 | 0.00 | 73 | 1011.7 |
| 20260505021519 | 54 | 194 | 4.3 | 8.7 | 0.00 | 0.00 | 0.00 | 72 | 1011.5 |
| 20260505020518 | 54 | 201 | 3.5 | 6.1 | 0.00 | 0.00 | 0.00 | 71 | 1011.7 |
| 20260505015516 | 54 | 180 | 1.7 | 4.3 | 0.00 | 0.00 | 0.00 | 71 | 1011.6 |
| 20260505014519 | 55 | 188 | 2.6 | 5.2 | 0.00 | 0.00 | 0.00 | 70 | 1011.6 |
| 20260505013519 | 55 | 204 | 3.5 | 5.2 | 0.00 | 0.00 | 0.00 | 69 | 1011.5 |
| 20260505012519 | 55 | 184 | 4.3 | 6.1 | 0.00 | 0.00 | 0.00 | 68 | 1011.5 |
| 20260505011517 | 56 | 179 | 2.6 | 5.2 | 0.00 | 0.00 | 0.00 | 67 | 1011.3 |
| 20260505010536 | 56 | 187 | 3.5 | 5.2 | 0.00 | 0.00 | 0.00 | 66 | 1011.1 |
| 20260505005520 | 56 | 182 | 3.5 | 8.7 | 0.00 | 0.00 | 0.00 | 64 | 1011.0 |
| 20260505004520 | 56 | 190 | 1.7 | 4.3 | 0.00 | 0.00 | 0.00 | 62 | 1010.8 |
| 20260505003520 | 57 | 193 | 2.6 | 4.3 | 0.00 | 0.00 | 0.00 | 61 | 1010.6 |
| 20260505002617 | 57 | 174 | 5.2 | 7.8 | 0.00 | 0.00 | 0.00 | 59 | 1010.3 |
| 20260505001517 | 57 | 174 | 2.6 | 4.3 | 0.00 | 0.00 | 0.00 | 58 | 1010.3 |
| 20260505000518 | 58 | 188 | 3.5 | 7.0 | 0.00 | 0.00 | 0.00 | 57 | 1010.1 |
| 20260504235540 | 58 | 177 | 2.6 | 6.1 | 0.00 | 0.00 | 0.00 | 56 | 1009.8 |
| 20260504234518 | 59 | 192 | 3.5 | 6.1 | 0.00 | 0.00 | 0.00 | 55 | 1009.7 |
| 20260504233518 | 60 | 188 | 3.5 | 6.1 | 0.00 | 0.00 | 0.00 | 53 | 1009.6 |
| 20260504232539 | 60 | 203 | 5.2 | 8.7 | 0.00 | 0.00 | 0.00 | 51 | 1009.4 |
| 20260504231518 | 61 | 200 | 5.2 | 7.0 | 0.00 | 0.00 | 0.00 | 49 | 1009.1 |
| 20260504230538 | 62 | 173 | 4.3 | 7.8 | 0.00 | 0.00 | 0.00 | 48 | 1008.8 |
| 20260504225518 | 63 | 176 | 4.3 | 7.8 | 0.00 | 0.00 | 0.00 | 47 | 1008.6 |
| 20260504224518 | 63 | 164 | 7.0 | 9.6 | 0.00 | 0.00 | 0.00 | 46 | 1008.3 |
| 20260504223519 | 64 | 171 | 5.2 | 7.8 | 0.00 | 0.00 | 0.00 | 46 | 1008.2 |
| 20260504222600 | 64 | 185 | 5.2 | 10.4 | 0.00 | 0.00 | 0.00 | 46 | 1008.1 |
| 20260504221516 | 64 | 187 | 4.3 | 7.8 | 0.00 | 0.00 | 0.00 | 46 | 1008.0 |
| 20260504220536 | 64 | 187 | 5.2 | 9.6 | 0.00 | 0.00 | 0.00 | 46 | 1007.9 |
| 20260504215517 | 64 | 189 | 7.0 | 9.6 | 0.00 | 0.00 | 0.00 | 46 | 1007.7 |
| 20260504214537 | 65 | 174 | 7.0 | 12.2 | 0.00 | 0.00 | 0.00 | 46 | 1007.8 |
| 20260504213558 | 65 | 183 | 2.6 | 4.3 | 0.00 | 0.00 | 0.00 | 46 | 1007.5 |
| 20260504212517 | 65 | 168 | 5.2 | 7.0 | 0.00 | 0.00 | 0.00 | 45 | 1007.4 |
| 20260504211517 | 66 | 212 | 4.3 | 8.7 | 0.00 | 0.00 | 0.00 | 44 | 1007.3 |
| 20260504210540 | 66 | 179 | 4.3 | 7.8 | 0.00 | 0.00 | 0.00 | 41 | 1007.0 |
| 20260504205518 | 67 | 193 | 7.8 | 12.2 | 0.00 | 0.00 | 0.00 | 41 | 1007.0 |
| 20260504204518 | 67 | 202 | 4.3 | 7.0 | 0.00 | 0.00 | 0.00 | 40 | 1006.8 |
| 20260504203518 | 67 | 188 | 6.1 | 10.4 | 0.00 | 0.00 | 0.00 | 40 | 1006.8 |
| 20260504202518 | 67 | 211 | 5.2 | 7.8 | 0.00 | 0.00 | 0.00 | 38 | 1006.7 |
| 20260504201518 | 67 | 191 | 7.0 | 8.7 | 0.00 | 0.00 | 0.00 | 39 | 1006.8 |
| 20260504200518 | 68 | 173 | 4.3 | 6.1 | 0.00 | 0.00 | 0.00 | 37 | 1006.6 |
| 20260504195518 | 68 | 183 | 6.1 | 10.4 | 0.00 | 0.00 | 0.00 | 36 | 1006.4 |
| 20260504194519 | 69 | 209 | 5.2 | 7.0 | 0.00 | 0.00 | 0.00 | 34 | 1006.6 |
| 20260504193520 | 68 | 181 | 4.3 | 7.0 | 0.00 | 0.00 | 0.00 | 34 | 1006.4 |
| 20260504192539 | 69 | 205 | 6.1 | 9.6 | 0.00 | 0.00 | 0.00 | 32 | 1006.2 |
| 20260504191516 | 69 | 204 | 4.3 | 8.7 | 0.00 | 0.00 | 0.00 | 32 | 1006.1 |
| 20260504190519 | 69 | 202 | 4.3 | 7.0 | 0.00 | 0.00 | 0.00 | 33 | 1006.2 |
| 20260504185519 | 69 | 241 | 6.1 | 13.0 | 0.00 | 0.00 | 0.00 | 32 | 1006.4 |
| 20260504184520 | 70 | 229 | 4.3 | 7.0 | 0.00 | 0.00 | 0.00 | 32 | 1006.2 |
| 20260504183521 | 69 | 192 | 4.3 | 7.8 | 0.00 | 0.00 | 0.00 | 33 | 1006.4 |
| 20260504182537 | 68 | 202 | 5.2 | 8.7 | 0.00 | 0.00 | 0.00 | 32 | 1006.6 |
| 20260504181517 | 69 | 265 | 3.5 | 7.8 | 0.00 | 0.00 | 0.00 | 32 | 1006.3 |
| 20260504180517 | 69 | 245 | 6.1 | 9.6 | 0.00 | 0.00 | 0.00 | 33 | 1006.6 |
| 20260504175517 | 69 | 208 | 4.3 | 6.1 | 0.00 | 0.00 | 0.00 | 32 | 1006.4 |
| 20260504174518 | 68 | 220 | 6.1 | 13.0 | 0.00 | 0.00 | 0.00 | 32 | 1006.4 |
| 20260504173518 | 69 | 245 | 7.8 | 11.3 | 0.00 | 0.00 | 0.00 | 31 | 1006.4 |
| 20260504172538 | 69 | 181 | 2.6 | 7.0 | 0.00 | 0.00 | 0.00 | 34 | 1006.1 |
| 20260504171518 | 68 | 200 | 6.1 | 9.6 | 0.00 | 0.00 | 0.00 | 33 | 1006.5 |
| 20260504170519 | 67 | 190 | 4.3 | 7.8 | 0.00 | 0.00 | 0.00 | 33 | 1006.5 |
| 20260504150537 | 65 | 264 | 4.3 | 7.0 | 0.00 | 0.00 | 0.00 | 37 | 1007.7 |
| 20260504140538 | 64 | 189 | 1.7 | 4.3 | 0.00 | 0.00 | 0.00 | 38 | 1008.1 |
| 20260504130516 | 59 | 251 | 3.5 | 6.1 | 0.00 | 0.00 | 0.00 | 43 | 1008.7 |
| 20260504110518 | 44 | 235 | 0.0 | 0.9 | 0.00 | 0.00 | 0.00 | 63 | 1010.9 |
| 20260504100519 | 42 | 209 | 0.0 | 1.7 | 0.00 | 0.00 | 0.00 | 66 | 1011.1 |
| 20260504081538 | 42 | 298 | 0.0 | 0.9 | 0.00 | 0.00 | 0.00 | 68 | 1011.2 |
| 20260504080538 | 41 | 166 | 1.7 | 2.6 | 0.00 | 0.00 | 0.00 | 68 | 1011.0 |